AirNav   Everest Fuels
 
 942 users online  

26R Jackson County Airport
Edna, Texas, USA

GOING TO EDNA?


FAA INFORMATION EFFECTIVE 09 SEPTEMBER 2021

Location

FAA Identifier: 26R
Lat/Long: 29-00-03.5970N 096-34-55.0630W
29-00.059950N 096-34.917717W
29.0009992,-96.5819619
(estimated)
Elevation: 61.5 ft. / 18.7 m (surveyed)
Variation: 03E (2020)
From city: 3 miles NE of EDNA, TX
Time zone: UTC -5 (UTC -6 during Standard Time)
Zip code: 77957

Airport Operations

Airport use: Open to the public
Activation date: 03/1967
Control tower: no
ARTCC: HOUSTON CENTER
FSS: MONTGOMERY COUNTY FLIGHT SERVICE STATION
NOTAMs facility: CXO (NOTAM-D service available)
Attendance: UNATNDD
Wind indicator: lighted
Segmented circle: yes
Lights: MIRL RWY 15/33 PRESET TO LOW. TO INCR INTST AND ACTVT - CTAF.
Beacon: white-green (lighted land airport)
Operates sunset to sunrise.

Airport Communications

CTAF/UNICOM: 122.8
WX ASOS at VCT (20 nm SW): 119.025 (361-578-9916)
  • APCH/DEP CTL SVC PRVDD BY HOUSTON ARTCC (ZHU) ON 128.6/360.8 (PALACIOS RCAG).

Nearby radio navigation aids

VOR radial/distance  VOR name  Freq  Var
PSXr306/20.3PALACIOS VORTAC117.3008E
VCTr068/21.7VICTORIA VOR/DME109.0006E

Airport Services

Fuel available: 100LL
100LL:FUEL AVBL 24 HRS WITH CREDIT CARD.
Parking: tiedowns
Airframe service: MAJOR
Powerplant service: MAJOR

Runway Information

Runway 15/33

Dimensions: 3393 x 70 ft. / 1034 x 21 m
Surface: asphalt, in fair condition
Weight bearing capacity: 
Single wheel: 12.5
Runway edge lights: medium intensity
RUNWAY 15  RUNWAY 33
Latitude: 29-00.301462N28-59.818432N
Longitude: 096-35.078667W096-34.756772W
Elevation: 60.9 ft.60.5 ft.
Traffic pattern: leftleft
Runway heading: 147 magnetic, 150 true327 magnetic, 330 true
Markings: nonprecision, in good conditionnonprecision, in good condition
Touchdown point: yes, no lightsyes, no lights
Obstructions: 30 ft. pline, 1560 ft. from runway, 45:1 slope to clearnone

Airport Ownership and Management from official FAA records

Ownership: Publicly-owned
Owner: JACKSON COUNTY
115 W. MAIN, RM 207
EDNA, TX 77957
Phone 361-782-2352
DENNIS KARL - COUNTY COMMISSIONER.
Manager: RICK MCCLURE
303 MAGNOLIA
VICTORIA, TX 77901
Phone 361-652-4163

Airport Operational Statistics

Aircraft based on the field: 14
Single engine airplanes: 13
Multi engine airplanes: 1
    
Aircraft operations: avg 21/day *
66% local general aviation
33% transient general aviation
1% military
* for 12-month period ending 04 May 2017

Additional Remarks

A104 HVY ITNRNT TFC ON WKENDS.
TO MNT AEROBATIC BOX - 123.3.
TWY HAS REFLECTORS ON PAVEMENT.
FOR CD CTC HOUSTON ARTCC AT 281-230-5622.

Instrument Procedures

NOTE: All procedures below are presented as PDF files. If you need a reader for these files, you should download the free Adobe Reader.

NOT FOR NAVIGATION. Please procure official charts for flight.
FAA instrument procedures published for use from 09 September 2021 at 0901Z to 07 October 2021 at 0900Z.

 
IAPs - Instrument Approach Procedures
RNAV (GPS)-A   download (144KB)
RNAV (GPS)-B   download (148KB)
NOTE: Special Take-Off Minimums/Departure Procedures apply   download (93KB)

Other nearby airports with instrument procedures:

KVCT - Victoria Regional Airport (20 nm SW)
KPKV - Calhoun County Airport (22 nm S)
KPSX - Palacios Municipal Airport (24 nm SE)
KARM - Wharton Regional Airport (27 nm NE)
T85 - Yoakum Municipal Airport (35 nm NW)
 
Loc | Ops | Rwys | IFR | FBO | Links
Com | Nav | Svcs | Stats | Notes
Area around 26R (Jackson County Airport)
 
Road maps at: MapQuest Bing Google
 
Aerial photo
WARNING: Photo may not be current or correct
Aerial photo of 26R (Jackson County Airport)
Do you have a better or more recent aerial photo of Jackson County Airport that you would like to share? If so, please send us your photo.

 
Sectional chart

 
Airport distance calculator
Flying to Jackson County Airport? Find the distance to fly.

From to 26R

Sunrise and sunset
Times for 26-Sep-2021
 Local
(UTC-5)
 Zulu
(UTC)
Morning civil twilight06:5411:54
Sunrise07:1812:18
Sunset19:1800:18
Evening civil twilight19:4100:41

Current date and time
Zulu (UTC)  27-Sep-2021 02:18:22
Local (UTC-5)  26-Sep-2021 21:18:22
 
METAR
KVCT 
20nm SW 
270151Z 11004KT 10SM CLR 21/16 A3001 RMK AO2 SLP160 T02060161
KPKV 
21nm S 
270155Z AUTO 14004KT 10SM CLR 23/17 A3001 RMK AO2 T02280170
KPSX 
24nm SE 
270153Z AUTO 10005KT 10SM CLR 23/19 A3000 RMK AO2 SLP159 T02280194
KARM 
27nm NE 
270155Z AUTO 12004KT 10SM CLR 21/17 A3003 RMK AO2 T02140170
KBYY 
38nm E 
270155Z AUTO 08004KT 10SM SCT030 SCT036 21/20 A3002 RMK AO2 T02130196
KELA 
38nm N 
270155Z AUTO 15004KT 10SM CLR 23/18 A3002 RMK AO2 T02250179
K66R 
39nm N 
270155Z AUTO 00000KT 10SM CLR 23/17 A3003 RMK AO2 T02290170
TAF
KVCT 
20nm SW 
261740Z 2618/2718 12006KT P6SM FEW040 FM270400 VRB03KT P6SM SKC TEMPO 2709/2713 5SM BR SCT015 FM271400 15006KT P6SM VCSH SCT025 SCT060 TEMPO 2715/2718 BKN025 BKN060
NOTAMs
Click for the latest NOTAMs
NOTAMs are issued by the DoD/FAA and will open in a separate window not controlled by AirNav.

 

 
 

FBO, Fuel Providers, and Aircraft Ground Support

  
 Business Name 
 
 Contact 
 
 Services / Description 
 
Fuel Prices
 
Comments
  
Jackson County Airport 361-652-4163
[web site]
[email]
Aviation fuel, Hangar leasing / sales

More info about Jackson County Airport
independent
100LL
SS $4.45 
 Updated 16-Sep-2021
 
   write
SS=Self service
Update Fuel Prices
 

Would you like to see your business listed on this page?

 If your business provides an interesting product or service to pilots, flight crews, aircraft, or users of the Jackson County Airport, you should consider listing it here.  To start the listing process, click on the button below
 
Add a business
 

Other Pages about Jackson County Airport

Jackson County Airport
 
Update a link
 
Copyright © AirNav, LLC. All rights reserved. Privacy Policy  Contact